When you browse on this site, cookies collect data to enhance your experience and personalize the content and advertising you see.
Visit our Privacy Policy to learn more. By continuing to use the site, you agree to this use of cookies and data.
  • In Denmark
  • List of Countries
  • For 7 days
  • Water Temperature
  • Weather Map
  • Weather Widgets
  • user-avatar
    Login

    Hourly Weather Cordoba

    Today, 7 December, Saturday

    Time Temperature Precipitation Wind Pressure Humidity
    00:00 +12°C° 0 mm 1 mps 757 mmHg 76%
    01:00 +11°C° 0 mm 1 mps 757 mmHg 77%
    02:00 +11°C° 0 mm 1 mps 757 mmHg 78%
    03:00 +11°C° 0 mm 1 mps 756 mmHg 80%
    04:00 +10°C° 0 mm 1 mps 757 mmHg 80%
    05:00 +10°C° 0 mm 1 mps 757 mmHg 81%
    06:00 +10°C° 0 mm 1 mps 757 mmHg 82%
    07:00 +11°C° 0 mm 1 mps 757 mmHg 78%
    08:00 +12°C° 0 mm 1 mps 757 mmHg 75%
    09:00 +12°C° 0 mm 1 mps 758 mmHg 72%
    10:00 +14°C° 0 mm 1 mps 758 mmHg 65%
    11:00 +16°C° 0 mm 1 mps 758 mmHg 59%
    12:00 +19°C° 0 mm 1 mps 757 mmHg 52%
    13:00 +19°C° 0 mm 1 mps 757 mmHg 51%
    14:00 +19°C° 0 mm 1 mps 757 mmHg 50%
    15:00 +20°C° 0 mm 1 mps 756 mmHg 49%
    16:00 +18°C° 0 mm 1 mps 757 mmHg 55%
    17:00 +14°C° 0 mm 0 mps 757 mmHg 62%
    18:00 +13°C° 0 mm 0 mps 757 mmHg 68%
    19:00 +12°C° 0 mm 0 mps 758 mmHg 70%
    20:00 +13°C° 0 mm 1 mps 758 mmHg 72%
    21:00 +12°C° 0 mm 1 mps 759 mmHg 74%
    22:00 +12°C° 0 mm 1 mps 759 mmHg 75%
    23:00 +12°C° 0 mm 1 mps 759 mmHg 77%

    Tomorrow, 8 December, Sunday

    Time Temperature Precipitation Wind Pressure Humidity
    00:00 +11°C° 0 mm 1 mps 760 mmHg 78%
    01:00 +11°C° 0 mm 1 mps 760 mmHg 79%
    02:00 +11°C° 0 mm 1 mps 759 mmHg 80%
    03:00 +10°C° 0 mm 1 mps 759 mmHg 81%
    04:00 +10°C° 0 mm 1 mps 759 mmHg 82%
    05:00 +10°C° 0 mm 1 mps 759 mmHg 83%
    06:00 +10°C° 0 mm 1 mps 759 mmHg 83%
    07:00 +10°C° 0 mm 1 mps 760 mmHg 80%
    08:00 +11°C° 0 mm 1 mps 760 mmHg 76%
    09:00 +11°C° 0 mm 0 mps 760 mmHg 72%
    10:00 +13°C° 0 mm 0 mps 760 mmHg 66%
    11:00 +15°C° 0 mm 0 mps 760 mmHg 60%
    12:00 +16°C° 0 mm 0 mps 760 mmHg 54%
    13:00 +19°C° 0 mm 1 mps 759 mmHg 53%
    14:00 +19°C° 0 mm 1 mps 759 mmHg 52%
    15:00 +19°C° 0 mm 1 mps 759 mmHg 51%
    16:00 +18°C° 0 mm 1 mps 759 mmHg 57%
    17:00 +15°C° 0 mm 1 mps 759 mmHg 62%
    18:00 +14°C° 0 mm 1 mps 760 mmHg 68%
    19:00 +14°C° 0 mm 1 mps 760 mmHg 69%
    20:00 +13°C° 0 mm 1 mps 760 mmHg 71%
    21:00 +13°C° 0 mm 1 mps 760 mmHg 72%
    22:00 +12°C° 0 mm 0 mps 760 mmHg 73%
    23:00 +12°C° 0 mm 0 mps 760 mmHg 73%

    Day after tomorrow, 9 December, Monday

    Time Temperature Precipitation Wind Pressure Humidity
    00:00 +13°C° 0 mm 0 mps 760 mmHg 74%
    01:00 +12°C° 0 mm 0 mps 760 mmHg 76%
    02:00 +12°C° 0 mm 0 mps 760 mmHg 78%
    03:00 +12°C° 0 mm 0 mps 760 mmHg 80%
    04:00 +12°C° 0 mm 0 mps 760 mmHg 82%
    05:00 +12°C° 0 mm 0 mps 760 mmHg 83%
    06:00 +11°C° 0 mm 0 mps 760 mmHg 84%
    07:00 +13°C° 0 mm 1 mps 761 mmHg 83%
    08:00 +13°C° 0 mm 1 mps 762 mmHg 82%
    09:00 +14°C° 0 mm 1 mps 762 mmHg 81%
    10:00 +15°C° 0 mm 1 mps 762 mmHg 75%
    11:00 +17°C° 0 mm 2 mps 762 mmHg 70%
    12:00 +18°C° 0 mm 2 mps 762 mmHg 64%
    13:00 +18°C° 0 mm 2 mps 761 mmHg 61%
    14:00 +19°C° 0 mm 2 mps 761 mmHg 58%
    15:00 +19°C° 0 mm 2 mps 761 mmHg 56%
    16:00 +18°C° 0 mm 2 mps 761 mmHg 61%
    17:00 +16°C° 0 mm 2 mps 761 mmHg 67%
    18:00 +15°C° 0 mm 2 mps 761 mmHg 73%
    19:00 +14°C° 0 mm 2 mps 761 mmHg 74%
    20:00 +13°C° 0 mm 2 mps 762 mmHg 75%
    21:00 +13°C° 0 mm 2 mps 762 mmHg 76%
    22:00 +12°C° 0 mm 2 mps 762 mmHg 74%
    23:00 +12°C° 0 mm 2 mps 762 mmHg 72%

    10 December, Tuesday

    Time Temperature Precipitation Wind Pressure Humidity
    00:00 +12°C° 0 mm 2 mps 762 mmHg 70%
    01:00 +10°C° 0 mm 2 mps 762 mmHg 67%
    02:00 +10°C° 0 mm 2 mps 761 mmHg 65%
    03:00 +10°C° 0 mm 2 mps 761 mmHg 62%
    04:00 +10°C° 0 mm 2 mps 761 mmHg 60%
    05:00 +9°C° 0 mm 2 mps 761 mmHg 58%
    06:00 +9°C° 0 mm 2 mps 761 mmHg 57%
    07:00 +11°C° 0 mm 1 mps 761 mmHg 54%
    08:00 +12°C° 0 mm 1 mps 761 mmHg 51%
    09:00 +13°C° 0 mm 1 mps 761 mmHg 49%
    10:00 +15°C° 0 mm 1 mps 761 mmHg 44%
    11:00 +18°C° 0 mm 1 mps 761 mmHg 39%
    12:00 +20°C° 0 mm 1 mps 760 mmHg 34%
    13:00 +20°C° 0 mm 1 mps 760 mmHg 35%
    14:00 +20°C° 0 mm 1 mps 759 mmHg 35%
    15:00 +20°C° 0 mm 1 mps 759 mmHg 35%
    16:00 +19°C° 0 mm 1 mps 759 mmHg 40%
    17:00 +15°C° 0 mm 0 mps 759 mmHg 44%
    18:00 +13°C° 0 mm 0 mps 759 mmHg 49%
    19:00 +12°C° 0 mm 0 mps 759 mmHg 50%
    20:00 +12°C° 0 mm 0 mps 759 mmHg 52%
    21:00 +13°C° 0 mm 1 mps 759 mmHg 53%
    22:00 +11°C° 0 mm 0 mps 759 mmHg 54%
    23:00 +11°C° 0 mm 0 mps 759 mmHg 54%

    11 December, Wednesday

    Time Temperature Precipitation Wind Pressure Humidity
    00:00 +10°C° 0 mm 0 mps 759 mmHg 55%
    01:00 +10°C° 0 mm 0 mps 759 mmHg 56%
    02:00 +10°C° 0 mm 0 mps 759 mmHg 56%
    03:00 +10°C° 0 mm 1 mps 758 mmHg 57%
    04:00 +10°C° 0 mm 1 mps 758 mmHg 58%
    05:00 +9°C° 0 mm 0 mps 758 mmHg 60%
    06:00 +9°C° 0 mm 0 mps 758 mmHg 61%
    07:00 +9°C° 0 mm 0 mps 759 mmHg 59%
    08:00 +10°C° 0 mm 0 mps 759 mmHg 58%
    09:00 +11°C° 0 mm 0 mps 759 mmHg 57%
    10:00 +14°C° 0 mm 1 mps 759 mmHg 54%
    11:00 +15°C° 0 mm 1 mps 758 mmHg 51%
    12:00 +18°C° 0 mm 1 mps 758 mmHg 49%
    13:00 +18°C° 0 mm 1 mps 758 mmHg 52%
    14:00 +17°C° 0 mm 2 mps 758 mmHg 55%
    15:00 +17°C° 0 mm 2 mps 757 mmHg 58%
    16:00 +16°C° 0 mm 2 mps 758 mmHg 65%
    17:00 +15°C° 0 mm 2 mps 758 mmHg 72%
    18:00 +13°C° 0 mm 2 mps 758 mmHg 79%
    19:00 +12°C° 0 mm 2 mps 759 mmHg 80%
    20:00 +12°C° 0 mm 2 mps 759 mmHg 82%
    21:00 +11°C° 0 mm 1 mps 760 mmHg 84%
    22:00 +10°C° 0 mm 1 mps 760 mmHg 84%
    23:00 +10°C° 0 mm 1 mps 760 mmHg 85%

    12 December, Thursday

    Time Temperature Precipitation Wind Pressure Humidity
    00:00 +10°C° 0 mm 1 mps 760 mmHg 85%
    01:00 +9°C° 0 mm 1 mps 760 mmHg 85%
    02:00 +9°C° 0 mm 1 mps 760 mmHg 85%
    03:00 +9°C° 0 mm 1 mps 760 mmHg 85%
    04:00 +8°C° 0 mm 1 mps 760 mmHg 85%
    05:00 +8°C° 0 mm 1 mps 760 mmHg 84%
    06:00 +8°C° 0 mm 1 mps 760 mmHg 84%
    07:00 +8°C° 0 mm 1 mps 761 mmHg 80%
    08:00 +9°C° 0 mm 1 mps 761 mmHg 76%
    09:00 +10°C° 0 mm 1 mps 761 mmHg 73%
    10:00 +11°C° 0 mm 1 mps 761 mmHg 66%
    11:00 +13°C° 0 mm 1 mps 761 mmHg 60%
    12:00 +14°C° 0 mm 2 mps 760 mmHg 53%
    13:00 +15°C° 0 mm 2 mps 760 mmHg 51%
    14:00 +15°C° 0 mm 2 mps 759 mmHg 49%
    15:00 +14°C° 0 mm 3 mps 759 mmHg 47%
    16:00 +13°C° 0 mm 3 mps 759 mmHg 53%
    17:00 +12°C° 0 mm 2 mps 760 mmHg 59%
    18:00 +10°C° 0 mm 2 mps 760 mmHg 65%
    19:00 +9°C° 0 mm 2 mps 760 mmHg 68%
    20:00 +10°C° 0 mm 1 mps 761 mmHg 71%
    21:00 +10°C° 0 mm 1 mps 761 mmHg 74%
    22:00 +9°C° 0 mm 1 mps 761 mmHg 77%
    23:00 +9°C° 0 mm 1 mps 761 mmHg 80%
    Show more